Hourly Data Report for October 01, 2017

All times are specified in Local Standard Time (LST). Add 1 hour to adjust for Daylight Saving Time where and when it is observed.

SUDBURY A
ONTARIO

46°37'32.000" N
80°47'52.000" W
348.40 m
6068153
71730
YSB

Download Data

Hourly Data (October 2017)
Hourly Data Report for October 1, 2017
Temp Definition
°C
Dew Point Temp Definition
°C
Rel Hum Definition
%
Wind Dir Definition
10's deg

Wind Spd Definition
km/h
Visibility Definition
km
Stn Press Definition
kPa
Hmdx Definition


Wind Chill Definition


Weather Definition


TIME
00:00 Legend Double Dagger 4.6 2.8 88 24 7 24.1 98.61     LegendNANA
01:00 Legend Double Dagger 3.8 2.5 91 21 8 24.1 98.60     Clear
02:00 Legend Double Dagger 4.0 3.0 93 23 8 24.1 98.59     LegendNANA
03:00 Legend Double Dagger 3.8 3.1 95 24 10 24.1 98.59     LegendNANA
04:00 Legend Double Dagger 3.4 2.9 97 22 9 24.1 98.60     Clear
05:00 Legend Double Dagger 4.0 3.6 98 23 9 24.1 98.59     LegendNANA
06:00 Legend Double Dagger 3.8 3.5 98 23 10 24.1 98.59     LegendNANA
07:00 Legend Double Dagger 3.3 3.0 98 22 9 0.8 98.60     Fog
08:00 Legend Double Dagger 6.5 6.2 99 24 7 24.1 98.61     LegendNANA
09:00 Legend Double Dagger 9.1 8.1 94 23 8 32.2 98.61     LegendNANA
10:00 Legend Double Dagger 13.1 9.4 78 24 10 32.2 98.62     Mainly Clear
11:00 Legend Double Dagger 14.2 6.6 60 27 21 32.2 98.57     LegendNANA
12:00 Legend Double Dagger 16.0 6.3 52 25 20 32.2 98.55     LegendNANA
13:00 Legend Double Dagger 17.0 5.1 45 28 16 32.2 98.46     Mainly Clear
14:00 Legend Double Dagger 17.2 5.5 46 23 18 32.2 98.40     LegendNANA
15:00 Legend Double Dagger 17.0 5.9 48 22 18 32.2 98.36     LegendNANA
16:00 Legend Double Dagger 17.0 6.1 49 21 16 32.2 98.34     Mainly Clear
17:00 Legend Double Dagger 16.1 6.3 52 20 16 32.2 98.34     LegendNANA
18:00 Legend Double Dagger 12.9 7.1 67 19 13 32.2 98.32     LegendNANA
19:00 Legend Double Dagger 11.6 8.1 79 20 16 24.1 98.34     Mainly Clear
20:00 Legend Double Dagger 10.4 8.4 87 21 14 24.1 98.38     LegendNANA
21:00 Legend Double Dagger 9.3 8.0 92 22 9 24.1 98.41     LegendNANA
22:00 Legend Double Dagger 9.0 8.2 95 22 9 24.1 98.44     Clear
23:00 Legend Double Dagger 8.3 7.8 97 22 8 24.1 98.48     LegendNANA

Notes on Data Quality.

Legend

  • E = Estimated
  • M = Missing
  • NA = Not Available
  • ‡ = Partner data that is not subject to review by the National Climate Archives
Date modified: